TimeEDT,TemperatureF,Dew PointF,Humidity,Sea Level PressureIn,VisibilityMPH,Wind Direction,Wind SpeedMPH,Gust SpeedMPH,PrecipitationIn,Events,Conditions,WindDirDegrees,DateUTC
12:25 AM,75.2,71.6,89,30.03,6.0,SSE,3.5,-,N/A,,Overcast,160,2013-08-31 04:25:00
12:53 AM,73.9,72.0,93,29.98,5.0,SSE,3.5,-,N/A,,Mostly Cloudy,160,2013-08-31 04:53:00
1:53 AM,73.9,71.1,91,29.97,5.0,Calm,Calm,-,N/A,,Clear,0,2013-08-31 05:53:00
2:53 AM,73.0,71.1,93,29.96,4.0,Calm,Calm,-,N/A,,Partly Cloudy,0,2013-08-31 06:53:00
3:53 AM,73.0,70.0,90,29.96,5.0,NNE,3.5,-,N/A,,Partly Cloudy,20,2013-08-31 07:53:00
4:23 AM,73.4,71.6,94,30.01,5.0,Calm,Calm,-,N/A,,Mostly Cloudy,0,2013-08-31 08:23:00
4:53 AM,73.9,71.1,91,29.95,6.0,Calm,Calm,-,N/A,,Mostly Cloudy,0,2013-08-31 08:53:00
5:40 AM,73.4,69.8,88,30.00,5.0,Calm,Calm,-,N/A,,Mostly Cloudy,0,2013-08-31 09:40:00
5:53 AM,73.9,71.1,91,29.96,5.0,NNE,3.5,-,N/A,,Overcast,20,2013-08-31 09:53:00
6:33 AM,73.4,71.6,94,30.01,5.0,Calm,Calm,-,N/A,,Scattered Clouds,0,2013-08-31 10:33:00
6:53 AM,72.0,70.0,93,29.96,4.0,Calm,Calm,-,N/A,,Clear,0,2013-08-31 10:53:00
7:14 AM,71.6,69.8,94,30.01,2.0,Calm,Calm,-,N/A,,Clear,0,2013-08-31 11:14:00
7:30 AM,71.6,69.8,94,30.02,2.5,Calm,Calm,-,N/A,,Clear,0,2013-08-31 11:30:00
7:38 AM,73.4,69.8,88,30.01,4.0,Calm,Calm,-,N/A,,Clear,0,2013-08-31 11:38:00
7:53 AM,73.9,71.1,91,29.97,3.0,NW,3.5,-,N/A,,Clear,320,2013-08-31 11:53:00
8:53 AM,77.0,72.0,84,29.99,5.0,Calm,Calm,-,N/A,,Haze,0,2013-08-31 12:53:00
9:08 AM,77.0,71.6,83,30.03,5.0,Calm,Calm,-,N/A,,Haze,0,2013-08-31 13:08:00
9:43 AM,77.0,71.6,83,30.03,6.0,Calm,Calm,-,N/A,,Haze,0,2013-08-31 13:43:00
9:50 AM,78.8,71.6,78,30.04,6.0,SSE,3.5,-,N/A,,Haze,160,2013-08-31 13:50:00
9:53 AM,77.0,72.0,84,29.99,6.0,Calm,Calm,-,N/A,,Haze,0,2013-08-31 13:53:00
10:53 AM,81.0,71.1,72,29.99,7.0,West,5.8,-,N/A,,Mostly Cloudy,280,2013-08-31 14:53:00
11:12 AM,80.6,71.6,74,30.04,8.0,Calm,Calm,-,N/A,,Scattered Clouds,0,2013-08-31 15:12:00
11:53 AM,82.9,71.1,67,29.98,9.0,WSW,4.6,-,N/A,,Partly Cloudy,250,2013-08-31 15:53:00
12:53 PM,84.9,70.0,61,29.97,10.0,Variable,6.9,-,N/A,,Scattered Clouds,0,2013-08-31 16:53:00
1:53 PM,86.0,69.1,57,29.95,10.0,West,3.5,-,N/A,,Partly Cloudy,280,2013-08-31 17:53:00
2:53 PM,86.0,69.1,57,29.92,10.0,Variable,3.5,-,N/A,,Mostly Cloudy,0,2013-08-31 18:53:00
3:20 PM,87.8,69.8,55,29.96,10.0,Calm,Calm,-,N/A,Thunderstorm,Mostly Cloudy,0,2013-08-31 19:20:00
3:53 PM,82.9,69.1,63,29.91,10.0,NW,8.1,-,N/A,Thunderstorm,Thunderstorm,320,2013-08-31 19:53:00
4:04 PM,78.8,69.8,74,29.98,1.2,Variable,3.5,-,0.18,Rain-Thunderstorm,Heavy Thunderstorms and Rain,0,2013-08-31 20:04:00
4:11 PM,75.2,69.8,83,29.99,0.2,North,8.1,16.1,0.56,Rain-Thunderstorm,Heavy Thunderstorms and Rain,350,2013-08-31 20:11:00
4:19 PM,75.2,66.2,73,29.97,0.2,ESE,15.0,20.7,1.14,Rain-Thunderstorm,Heavy Thunderstorms and Rain,120,2013-08-31 20:19:00
4:31 PM,71.6,66.2,83,29.98,0.8,SW,9.2,16.1,1.41,Rain-Thunderstorm,Heavy Thunderstorms and Rain,230,2013-08-31 20:31:00
4:35 PM,71.6,64.4,78,29.98,1.2,Variable,4.6,16.1,1.44,Rain-Thunderstorm,Heavy Thunderstorms and Rain,0,2013-08-31 20:35:00
4:41 PM,71.6,64.4,78,29.97,1.8,West,8.1,-,1.47,Rain-Thunderstorm,Heavy Thunderstorms and Rain,280,2013-08-31 20:41:00
4:53 PM,70.0,64.9,84,29.93,1.5,WSW,10.4,-,1.60,Rain-Thunderstorm,Heavy Thunderstorms and Rain,250,2013-08-31 20:53:00
5:04 PM,69.8,66.2,88,29.97,2.0,South,6.9,-,0.06,Rain-Thunderstorm,Thunderstorms and Rain,180,2013-08-31 21:04:00
5:07 PM,69.8,66.2,88,29.97,3.0,South,8.1,-,0.06,Rain-Thunderstorm,Rain,180,2013-08-31 21:07:00
5:49 PM,71.6,66.2,83,29.96,10.0,Calm,Calm,-,0.07,,Scattered Clouds,0,2013-08-31 21:49:00
5:53 PM,71.1,66.9,87,29.91,10.0,Calm,Calm,-,0.07,,Scattered Clouds,0,2013-08-31 21:53:00
6:53 PM,73.9,66.9,79,29.91,10.0,Calm,Calm,-,N/A,,Clear,0,2013-08-31 22:53:00
7:53 PM,73.0,68.0,84,29.91,10.0,Calm,Calm,-,N/A,,Clear,0,2013-08-31 23:53:00
8:53 PM,73.0,68.0,84,29.95,10.0,ESE,3.5,-,N/A,,Mostly Cloudy,110,2013-09-01 00:53:00
9:53 PM,72.0,69.1,91,29.96,10.0,Calm,Calm,-,0.02,,Overcast,0,2013-09-01 01:53:00
10:53 PM,73.0,66.9,81,29.94,10.0,Calm,Calm,-,N/A,,Mostly Cloudy,0,2013-09-01 02:53:00
11:53 PM,71.1,68.0,90,29.93,8.0,Calm,Calm,-,N/A,,Clear,0,2013-09-01 03:53:00